Time,TemperatureF,DewpointF,PressureIn,WindDirection,WindDirectionDegrees,WindSpeedMPH,WindSpeedGustMPH,Humidity,HourlyPrecipIn,Conditions,Clouds,dailyrainin,SoftwareType,DateUTC
2013-04-02 01:12:00,33.0,11.0,-100.00,NW,305,7.0,20.0,39,-99.99,,,-99.99,,2013-04-02 05:12:00,
2013-04-02 01:22:00,33.0,11.0,-100.00,WNW,300,8.0,16.0,39,-99.99,,,-99.99,,2013-04-02 05:22:00,
2013-04-02 01:32:00,33.0,11.0,-100.00,WNW,300,7.0,14.0,40,-99.99,,,-99.99,,2013-04-02 05:32:00,
2013-04-02 01:43:00,33.0,10.0,-100.00,WNW,295,9.0,23.0,38,-99.99,,,-99.99,,2013-04-02 05:43:00,
2013-04-02 01:52:00,33.0,10.0,-100.00,NW,310,14.0,22.0,37,-99.99,,,-99.99,,2013-04-02 05:52:00,
2013-04-02 02:02:00,33.0,10.0,-100.00,WNW,300,13.0,21.0,38,-99.99,,,-99.99,,2013-04-02 06:02:00,
2013-04-02 02:12:00,32.0,10.0,-100.00,NW,305,5.0,15.0,39,-99.99,,,-99.99,,2013-04-02 06:12:00,
2013-04-02 02:22:00,32.0,10.0,-100.00,WNW,295,5.0,17.0,40,-99.99,,,-99.99,,2013-04-02 06:22:00,
2013-04-02 02:32:00,32.0,10.0,-100.00,WNW,290,9.0,15.0,39,-99.99,,,-99.99,,2013-04-02 06:32:00,
2013-04-02 02:42:00,32.0,10.0,-100.00,WNW,295,9.0,14.0,39,-99.99,,,-99.99,,2013-04-02 06:42:00,
2013-04-02 02:52:00,31.0,10.0,-100.00,NW,315,6.0,18.0,40,-99.99,,,-99.99,,2013-04-02 06:52:00,
2013-04-02 03:02:00,32.0,9.0,-100.00,WNW,295,12.0,17.0,38,-99.99,,,-99.99,,2013-04-02 07:02:00,
2013-04-02 03:13:00,31.0,9.0,-100.00,WNW,295,7.0,16.0,39,-99.99,,,-99.99,,2013-04-02 07:13:00,
2013-04-02 03:22:00,31.0,9.0,-100.00,NW,305,8.0,16.0,39,-99.99,,,-99.99,,2013-04-02 07:22:00,
2013-04-02 03:32:00,31.0,9.0,-100.00,NW,305,8.0,16.0,39,-99.99,,,-99.99,,2013-04-02 07:32:00,
2013-04-02 03:43:00,31.0,8.0,-100.00,NW,310,7.0,15.0,38,-99.99,,,-99.99,,2013-04-02 07:43:00,
2013-04-02 03:53:00,31.0,9.0,-100.00,WNW,295,6.0,10.0,39,-99.99,,,-99.99,,2013-04-02 07:53:00,
2013-04-02 04:02:00,30.0,8.0,-100.00,NW,310,5.0,10.0,39,-99.99,,,-99.99,,2013-04-02 08:02:00,
2013-04-02 04:13:00,30.0,9.0,-100.00,NW,305,3.0,9.0,40,-99.99,,,-99.99,,2013-04-02 08:13:00,
2013-04-02 04:22:00,30.0,8.0,-100.00,NW,305,5.0,8.0,40,-99.99,,,-99.99,,2013-04-02 08:22:00,
2013-04-02 04:32:00,30.0,9.0,-100.00,West,260,3.0,10.0,41,-99.99,,,-99.99,,2013-04-02 08:32:00,
2013-04-02 04:42:00,29.0,9.0,-100.00,West,265,3.0,7.0,41,-99.99,,,-99.99,,2013-04-02 08:42:00,
2013-04-02 04:52:00,29.0,9.0,-100.00,SW,235,2.0,10.0,42,-99.99,,,-99.99,,2013-04-02 08:52:00,
2013-04-02 05:02:00,29.0,9.0,-100.00,WNW,295,5.0,14.0,42,-99.99,,,-99.99,,2013-04-02 09:02:00,
2013-04-02 05:13:00,29.0,9.0,-100.00,WNW,290,5.0,10.0,42,-99.99,,,-99.99,,2013-04-02 09:13:00,
2013-04-02 05:20:00,29.0,9.0,-100.00,WSW,250,2.0,9.0,44,-99.99,,,-99.99,,2013-04-02 09:20:00,
2013-04-02 05:22:00,29.0,10.0,-100.00,West,280,2.0,13.0,44,-99.99,,,-99.99,,2013-04-02 09:22:00,
2013-04-02 05:33:00,29.0,9.0,-100.00,WNW,295,6.0,13.0,43,-99.99,,,-99.99,,2013-04-02 09:33:00,
2013-04-02 05:43:00,29.0,10.0,-100.00,WSW,255,5.0,12.0,44,-99.99,,,-99.99,,2013-04-02 09:43:00,
2013-04-02 05:52:00,29.0,10.0,-100.00,WSW,255,2.0,9.0,45,-99.99,,,-99.99,,2013-04-02 09:52:00,
2013-04-02 06:03:00,29.0,9.0,-100.00,WSW,250,2.0,9.0,44,-99.99,,,-99.99,,2013-04-02 10:03:00,
2013-04-02 06:13:00,29.0,9.0,-100.00,WSW,250,2.0,9.0,44,-99.99,,,-99.99,,2013-04-02 10:13:00,
2013-04-02 07:12:00,28.0,11.0,-100.00,WSW,245,2.0,7.0,47,-99.99,,,-99.99,,2013-04-02 11:12:00,
2013-04-02 07:23:00,28.0,11.0,-100.00,ESE,120,1.0,7.0,50,-99.99,,,-99.99,,2013-04-02 11:23:00,
2013-04-02 07:33:00,28.0,12.0,-100.00,SSW,205,1.0,6.0,51,-99.99,,,-99.99,,2013-04-02 11:33:00,
2013-04-02 07:43:00,28.0,13.0,-100.00,SSW,200,3.0,7.0,52,-99.99,,,-99.99,,2013-04-02 11:43:00,
2013-04-02 07:52:00,29.0,12.0,-100.00,SSW,205,2.0,7.0,50,-99.99,,,-99.99,,2013-04-02 11:52:00,
2013-04-02 08:02:00,29.0,13.0,-100.00,SSW,210,1.0,7.0,49,-99.99,,,-99.99,,2013-04-02 12:02:00,
2013-04-02 08:12:00,30.0,13.0,-100.00,SW,230,2.0,6.0,48,-99.99,,,-99.99,,2013-04-02 12:12:00,
2013-04-02 08:23:00,30.0,14.0,-100.00,SW,235,2.0,9.0,49,-99.99,,,-99.99,,2013-04-02 12:23:00,
2013-04-02 08:32:00,30.0,14.0,-100.00,SW,235,2.0,9.0,49,-99.99,,,-99.99,,2013-04-02 12:32:00,
2013-04-02 08:42:00,32.0,13.0,-100.00,SW,230,3.0,13.0,46,-99.99,,,-99.99,,2013-04-02 12:42:00,
2013-04-02 08:53:00,32.0,14.0,-100.00,West,280,3.0,14.0,46,-99.99,,,-99.99,,2013-04-02 12:53:00,
2013-04-02 09:02:00,32.0,13.0,-100.00,WNW,300,7.0,10.0,45,-99.99,,,-99.99,,2013-04-02 13:02:00,
2013-04-02 09:12:00,32.0,13.0,-100.00,WNW,300,7.0,10.0,45,-99.99,,,-99.99,,2013-04-02 13:12:00,
2013-04-02 09:23:00,32.0,13.0,-100.00,WNW,300,8.0,15.0,44,-99.99,,,-99.99,,2013-04-02 13:23:00,
2013-04-02 09:33:00,33.0,13.0,-100.00,NW,305,9.0,17.0,44,-99.99,,,-99.99,,2013-04-02 13:33:00,
2013-04-02 09:42:00,33.0,12.0,-100.00,West,260,9.0,24.0,42,-99.99,,,-99.99,,2013-04-02 13:42:00,
2013-04-02 09:52:00,33.0,12.0,-100.00,West,265,6.0,27.0,41,-99.99,,,-99.99,,2013-04-02 13:52:00,
2013-04-02 10:02:00,32.0,12.0,-100.00,SW,230,7.0,21.0,43,-99.99,,,-99.99,,2013-04-02 14:02:00,
2013-04-02 10:13:00,32.0,12.0,-100.00,SW,230,7.0,21.0,43,-99.99,,,-99.99,,2013-04-02 14:13:00,
2013-04-02 10:23:00,34.0,13.0,-100.00,WNW,295,8.0,22.0,42,-99.99,,,-99.99,,2013-04-02 14:23:00,
2013-04-02 10:33:00,34.0,12.0,-100.00,SW,225,7.0,20.0,40,-99.99,,,-99.99,,2013-04-02 14:33:00,
2013-04-02 10:42:00,34.0,11.0,-100.00,WNW,300,10.0,22.0,38,-99.99,,,-99.99,,2013-04-02 14:42:00,
2013-04-02 10:52:00,35.0,10.0,-100.00,West,275,7.0,18.0,35,-99.99,,,-99.99,,2013-04-02 14:52:00,
2013-04-02 11:02:00,34.0,10.0,-100.00,WSW,250,7.0,21.0,36,-99.99,,,-99.99,,2013-04-02 15:02:00,
2013-04-02 11:10:00,36.0,10.0,-100.00,NW,305,8.0,18.0,34,-99.99,,,-99.99,,2013-04-02 15:10:00,
2013-04-02 11:12:00,36.0,10.0,-100.00,West,270,7.0,16.0,34,-99.99,,,-99.99,,2013-04-02 15:12:00,
2013-04-02 11:23:00,34.0,9.0,-100.00,WNW,295,9.0,23.0,34,-99.99,,,-99.99,,2013-04-02 15:23:00,
2013-04-02 11:33:00,36.0,10.0,-100.00,WNW,285,7.0,18.0,33,-99.99,,,-99.99,,2013-04-02 15:33:00,
2013-04-02 11:43:00,36.0,10.0,-100.00,WNW,290,5.0,17.0,33,-99.99,,,-99.99,,2013-04-02 15:43:00,
2013-04-02 11:55:00,36.0,10.0,-100.00,NW,305,8.0,18.0,34,-99.99,,,-99.99,,2013-04-02 15:55:00,
2013-04-02 12:04:00,36.0,10.0,-100.00,NW,305,8.0,18.0,34,-99.99,,,-99.99,,2013-04-02 16:04:00,
2013-04-02 12:30:00,37.0,12.0,-100.00,West,265,7.0,25.0,36,-99.99,,,-99.99,,2013-04-02 16:30:00,
2013-04-02 13:14:00,37.0,12.0,-100.00,West,265,7.0,25.0,36,-99.99,,,-99.99,,2013-04-02 17:14:00,
2013-04-02 13:25:00,37.0,12.0,-100.00,West,265,7.0,25.0,36,-99.99,,,-99.99,,2013-04-02 17:25:00,
2013-04-02 13:44:00,36.0,10.0,-100.00,WNW,300,13.0,28.0,34,-99.99,,,-99.99,,2013-04-02 17:44:00,
2013-04-02 13:57:00,36.0,9.0,-100.00,WNW,295,14.0,32.0,32,-99.99,,,-99.99,,2013-04-02 17:57:00,
2013-04-02 14:04:00,38.0,10.0,-100.00,West,270,8.0,21.0,30,-99.99,,,-99.99,,2013-04-02 18:04:00,
2013-04-02 14:13:00,38.0,9.0,-100.00,West,265,9.0,18.0,30,-99.99,,,-99.99,,2013-04-02 18:13:00,
2013-04-02 14:23:00,39.0,10.0,-100.00,West,260,7.0,23.0,29,-99.99,,,-99.99,,2013-04-02 18:23:00,
2013-04-02 14:35:00,39.0,9.0,-100.00,West,275,8.0,25.0,28,-99.99,,,-99.99,,2013-04-02 18:35:00,
2013-04-02 14:43:00,39.0,8.0,-100.00,NW,310,9.0,23.0,27,-99.99,,,-99.99,,2013-04-02 18:43:00,
2013-04-02 14:54:00,39.0,9.0,-100.00,West,270,10.0,27.0,28,-99.99,,,-99.99,,2013-04-02 18:54:00,
2013-04-02 15:03:00,39.0,10.0,-100.00,WNW,290,10.0,22.0,29,-99.99,,,-99.99,,2013-04-02 19:03:00,
2013-04-02 15:13:00,39.0,10.0,-100.00,WSW,250,7.0,28.0,29,-99.99,,,-99.99,,2013-04-02 19:13:00,
2013-04-02 15:23:00,38.0,10.0,-100.00,SW,230,5.0,15.0,31,-99.99,,,-99.99,,2013-04-02 19:23:00,
2013-04-02 15:34:00,40.0,10.0,-100.00,SW,220,7.0,24.0,29,-99.99,,,-99.99,,2013-04-02 19:34:00,
2013-04-02 15:45:00,40.0,8.0,-100.00,WNW,285,9.0,20.0,27,-99.99,,,-99.99,,2013-04-02 19:45:00,
2013-04-02 15:54:00,37.0,9.0,-100.00,NW,305,15.0,31.0,30,-99.99,,,-99.99,,2013-04-02 19:54:00,
2013-04-02 16:04:00,40.0,10.0,-100.00,West,280,6.0,23.0,29,-99.99,,,-99.99,,2013-04-02 20:04:00,
2013-04-02 16:14:00,37.0,9.0,-100.00,WNW,285,14.0,30.0,31,-99.99,,,-99.99,,2013-04-02 20:14:00,
2013-04-02 16:23:00,36.0,9.0,-100.00,WNW,295,14.0,28.0,31,-99.99,,,-99.99,,2013-04-02 20:23:00,
2013-04-02 16:34:00,38.0,9.0,-100.00,NW,305,14.0,31.0,29,-99.99,,,-99.99,,2013-04-02 20:34:00,
2013-04-02 16:44:00,37.0,8.0,-100.00,NW,305,6.0,30.0,29,-99.99,,,-99.99,,2013-04-02 20:44:00,
2013-04-02 16:53:00,38.0,8.0,-100.00,WNW,300,10.0,25.0,29,-99.99,,,-99.99,,2013-04-02 20:53:00,
2013-04-02 17:05:00,38.0,9.0,-100.00,WNW,290,7.0,20.0,29,-99.99,,,-99.99,,2013-04-02 21:05:00,
2013-04-02 17:10:00,37.0,6.0,-100.00,West,260,13.0,30.0,27,-99.99,,,-99.99,,2013-04-02 21:10:00,
2013-04-02 17:13:00,37.0,8.0,-100.00,WNW,295,18.0,33.0,29,-99.99,,,-99.99,,2013-04-02 21:13:00,
2013-04-02 17:23:00,38.0,6.0,-100.00,NW,305,16.0,30.0,26,-99.99,,,-99.99,,2013-04-02 21:23:00,
2013-04-02 17:35:00,38.0,6.0,-100.00,NW,305,16.0,30.0,26,-99.99,,,-99.99,,2013-04-02 21:35:00,
2013-04-02 17:44:00,37.0,6.0,-100.00,WNW,285,9.0,36.0,26,-99.99,,,-99.99,,2013-04-02 21:44:00,
2013-04-02 17:56:00,37.0,6.0,-100.00,West,260,13.0,30.0,27,-99.99,,,-99.99,,2013-04-02 21:56:00,
2013-04-02 18:04:00,37.0,6.0,-100.00,West,260,13.0,30.0,27,-99.99,,,-99.99,,2013-04-02 22:04:00,
2013-04-02 19:13:00,36.0,7.0,-100.00,NW,305,20.0,35.0,29,-99.99,,,-99.99,,2013-04-02 23:13:00,
2013-04-02 19:24:00,35.0,6.0,-100.00,WNW,300,17.0,30.0,29,-99.99,,,-99.99,,2013-04-02 23:24:00,
2013-04-02 19:35:00,35.0,7.0,-100.00,WNW,300,9.0,27.0,31,-99.99,,,-99.99,,2013-04-02 23:35:00,
2013-04-02 19:43:00,35.0,7.0,-100.00,WSW,250,10.0,23.0,31,-99.99,,,-99.99,,2013-04-02 23:43:00,
2013-04-02 19:53:00,35.0,6.0,-100.00,WNW,300,13.0,23.0,30,-99.99,,,-99.99,,2013-04-02 23:53:00,
2013-04-02 20:05:00,34.0,6.0,-100.00,NW,310,10.0,30.0,30,-99.99,,,-99.99,,2013-04-03 00:05:00,
2013-04-02 20:13:00,34.0,7.0,-100.00,NW,305,6.0,14.0,31,-99.99,,,-99.99,,2013-04-03 00:13:00,
2013-04-02 20:25:00,34.0,7.0,-100.00,West,265,9.0,21.0,32,-99.99,,,-99.99,,2013-04-03 00:25:00,
2013-04-02 20:47:00,34.0,6.0,-100.00,NW,305,15.0,29.0,30,-99.99,,,-99.99,,2013-04-03 00:47:00,
2013-04-02 21:04:00,34.0,8.0,-100.00,WNW,300,8.0,21.0,33,-99.99,,,-99.99,,2013-04-03 01:04:00,
2013-04-02 21:13:00,34.0,8.0,-100.00,WNW,300,10.0,21.0,33,-99.99,,,-99.99,,2013-04-03 01:13:00,
2013-04-02 21:23:00,33.0,9.0,-100.00,NW,320,5.0,13.0,35,-99.99,,,-99.99,,2013-04-03 01:23:00,
2013-04-02 21:33:00,34.0,9.0,-100.00,West,280,6.0,14.0,35,-99.99,,,-99.99,,2013-04-03 01:33:00,
2013-04-02 21:42:00,33.0,9.0,-100.00,WNW,290,6.0,23.0,36,-99.99,,,-99.99,,2013-04-03 01:42:00,
2013-04-02 21:53:00,33.0,10.0,-100.00,WNW,295,7.0,21.0,37,-99.99,,,-99.99,,2013-04-03 01:53:00,
2013-04-02 22:14:00,33.0,10.0,-100.00,SW,235,5.0,15.0,38,-99.99,,,-99.99,,2013-04-03 02:14:00,
2013-04-02 22:25:00,33.0,10.0,-100.00,WNW,300,7.0,21.0,38,-99.99,,,-99.99,,2013-04-03 02:25:00,
2013-04-02 22:34:00,32.0,11.0,-100.00,NW,310,5.0,12.0,40,-99.99,,,-99.99,,2013-04-03 02:34:00,
2013-04-02 22:44:00,33.0,11.0,-100.00,NW,305,6.0,15.0,40,-99.99,,,-99.99,,2013-04-03 02:44:00,
2013-04-02 22:53:00,32.0,11.0,-100.00,WNW,295,5.0,9.0,41,-99.99,,,-99.99,,2013-04-03 02:53:00,
2013-04-02 23:06:00,32.0,11.0,-100.00,West,270,3.0,13.0,41,-99.99,,,-99.99,,2013-04-03 03:06:00,
2013-04-02 23:14:00,32.0,12.0,-100.00,WNW,300,3.0,10.0,42,-99.99,,,-99.99,,2013-04-03 03:14:00,
2013-04-02 23:23:00,32.0,11.0,-100.00,West,265,5.0,10.0,42,-99.99,,,-99.99,,2013-04-03 03:23:00,
2013-04-02 23:30:00,33.0,11.0,-100.00,NW,305,10.0,22.0,40,-99.99,,,-99.99,,2013-04-03 03:30:00,
2013-04-02 23:38:00,32.0,12.0,-100.00,West,260,5.0,10.0,42,-99.99,,,-99.99,,2013-04-03 03:38:00,
2013-04-02 23:44:00,32.0,12.0,-100.00,WSW,255,6.0,16.0,43,-99.99,,,-99.99,,2013-04-03 03:44:00,
2013-04-02 23:53:00,32.0,12.0,-100.00,West,275,5.0,13.0,43,-99.99,,,-99.99,,2013-04-03 03:53:00,